[[{"header":{"parameterUnit":"m.s-1","parameterCategory":1,"la1":30.2991,"la2":30.254,"lo1":-89.0895,"lo2":-89.0444,"dy":0.0017,"dx":0.0017,"nx":28,"ny":28,"refTime":"2024-08-12T09:00:00:Z","depth":0,"parameterNumber":2,"parameterNumberName":"U-component_of_WINDS"},"data":[0,0,0,0,0,0,0,0,0,0,0,0,0,0,0,0,0,0,0,0,0,0,0,0,0,0,0,0,0,0,0,0,0,0,0,0,0,0,0,0,0,0,0,0,0,0,0,0,0,0,0,0,0,0,0,0,0,0,3.7536,3.7538,0,3.7691,3.7693,3.7695,3.7677,3.7675,3.7672,3.767,3.7828,3.7835,3.7841,0,0,0,0,0,0,0,0,0,0,0,0,0,3.7224,3.723,3.7536,3.7538,3.754,3.7691,3.7693,3.7695,3.7677,3.7674,3.7671,3.7669,3.7826,3.7834,3.7842,0,0,0,0,0,0,0,0,0,0,0,0,0,3.7367,3.7232,3.7536,3.7549,3.7552,3.769,3.7693,3.7696,3.7678,3.7674,3.7671,3.7667,3.7824,3.7833,3.7843,3.7978,0,0,3.7873,3.7877,0,0,0,0,0,0,0,0,3.7359,3.7379,3.7545,3.7549,3.7552,3.7661,3.7641,3.779,3.7679,3.763,3.767,3.7665,3.7776,3.7789,3.7826,3.7985,3.7992,3.7874,3.788,3.7884,3.7887,0,0,0,0,0,0,0,3.7349,3.7372,3.7597,3.7548,3.7552,3.7547,3.7564,3.7669,3.7722,3.7634,3.7633,3.7652,3.7777,3.7817,3.783,3.7994,3.7873,3.7882,3.7888,3.7892,3.827,3.8274,0,0,0,0,0,0,3.7336,3.7364,3.7592,3.7602,3.7444,3.7556,3.7574,3.763,3.7721,3.7731,3.7655,3.7651,3.7802,3.7819,3.7836,3.7999,3.7884,3.7893,3.7899,3.8266,3.8271,3.8276,0,0,0,0,0,0,3.7329,3.7357,3.7586,3.7483,3.7512,3.7565,3.7628,3.7635,3.7675,3.7736,3.7746,3.7686,3.78,3.7822,3.7942,3.8004,3.7897,3.7906,3.8261,3.8268,3.8273,3.8326,0,0,0,0,0,0,3.732,3.7354,3.7406,3.7484,3.7517,3.7691,3.7632,3.764,3.7692,3.7688,3.7768,3.7778,3.7799,3.7928,3.7952,3.8015,3.7914,3.8256,3.8264,3.8272,3.8319,3.8333,3.8345,0,0,0,0,0,3.7309,3.7415,3.7409,3.7437,3.7583,3.7694,3.7713,3.7735,3.7697,3.7749,3.7789,3.7776,3.7993,3.794,3.7967,3.8035,3.8252,3.8262,3.8271,3.8313,3.833,3.8345,0,0,0,0,0,0,3.7343,3.7425,3.742,3.7554,3.7617,3.7691,3.7758,3.7752,3.7828,3.7821,3.7844,3.7862,3.7984,3.8021,3.7961,3.8169,3.8118,3.8133,3.814,3.8157,3.817,3.8158,3.7922,0,0,0,0,0,3.7366,3.7449,3.7517,3.7628,3.7661,3.7704,3.7753,3.7764,3.7831,3.7857,3.7905,3.7971,3.8053,3.8108,3.8187,3.8325,3.8341,3.8384,3.8397,3.8408,3.8421,3.8495,3.8515,3.8307,3.8307,3.8306,0,0,3.7414,3.747,3.7521,3.7637,3.7687,3.7772,3.7726,3.7819,3.7882,3.7871,3.7988,3.8026,3.81,3.8229,3.8288,3.8264,3.8482,3.842,3.8428,3.8435,3.8507,3.8526,3.8544,3.8313,3.8312,3.8311,0,0,3.7546,3.7596,3.7694,3.7746,3.7823,3.7851,3.7874,3.795,3.7974,3.8091,3.8084,3.816,3.8303,3.8356,3.8401,3.8553,3.8543,3.8578,3.8647,3.8719,3.8736,3.875,3.8803,3.8822,3.8591,3.8591,3.8591,0,3.7596,3.7724,3.7745,3.7839,3.789,3.7884,3.7983,3.8032,3.8131,3.8166,3.8137,3.8316,3.8366,3.8506,3.8543,3.8581,3.8608,3.8569,3.8732,3.8747,3.8761,3.8811,3.8831,3.8594,3.8594,3.8594,3.8593,0,3.7782,3.7871,3.7941,3.8037,3.8096,3.8192,3.8227,3.8284,3.829,3.8321,3.844,3.8499,3.859,3.8625,3.8632,3.8767,3.8749,3.8726,3.8674,3.8784,3.8832,3.8851,3.86,3.8598,3.8597,3.8596,0,0,3.7939,3.8044,3.807,3.8113,3.8197,3.8266,3.8362,3.8451,3.8499,3.8568,3.8648,3.8769,3.8747,3.8799,3.8812,3.8876,3.899,3.8844,3.8847,3.8869,3.9142,3.9158,3.918,3.8985,3.8989,3.8992,3.9135,0,3.8078,3.8246,3.8268,3.8417,3.85,3.8495,3.8578,3.8639,3.867,3.8744,3.8779,3.8864,3.883,3.8861,3.8924,3.8963,3.9045,3.8953,3.9059,3.9063,3.904,3.9206,3.9224,3.9356,3.9155,3.9158,3.916,0,3.8262,3.8336,3.8493,3.8566,3.8601,3.8675,3.8758,3.883,3.8898,3.8916,3.8974,3.8979,3.9077,3.9022,3.9157,3.9094,3.9139,3.9165,3.917,3.918,3.9117,3.9219,3.9399,3.9419,3.919,3.9188,3.9186,0,3.8359,3.8498,3.861,3.8647,3.8734,3.8786,3.8825,3.889,3.8942,3.9015,3.9049,3.9132,3.9178,3.9242,3.9269,3.9227,3.9403,3.935,3.942,3.942,3.9457,3.9454,3.9645,3.9487,3.9487,3.9487,3.9486,0,3.8512,3.8608,3.8654,3.8723,3.8831,3.8855,3.8961,3.8998,3.9055,3.9131,3.9132,3.9203,3.9235,3.9311,3.9333,3.9441,3.9462,3.9479,3.9483,3.9478,3.9476,3.9507,3.9498,3.9492,3.9491,3.949,3.9489,0,3.8638,3.8673,3.8795,3.8868,3.8888,3.8964,3.9026,3.9093,3.9123,3.9219,3.9243,3.9291,3.9381,3.9414,3.9523,3.9538,3.9662,3.966,3.9639,3.964,3.9708,3.9701,3.9925,3.9956,3.9779,3.978,3.9782,0,3.8733,3.8807,3.8887,3.8938,3.8979,3.906,3.9113,3.914,3.9195,3.9278,3.9335,3.9423,3.9496,3.9639,3.9683,3.9766,3.9765,3.9838,3.9778,3.977,3.9765,3.976,3.9767,3.9849,3.9851,3.9852,3.9854,0,3.8896,3.891,3.8986,3.9069,3.9132,3.9198,3.9263,3.9304,3.934,3.9402,3.9493,3.9549,3.966,3.9748,3.9834,3.9873,3.987,3.9872,3.9893,3.9888,3.9872,3.9881,3.9669,3.9867,3.9866,3.9865,3.9864,3.9863,3.9009,3.9074,3.9141,3.9226,3.9277,3.9337,3.9403,3.9442,3.9518,3.961,3.9621,3.9719,3.9785,3.9899,3.9943,4.002,4.0,4.003,4.0037,4.0044,4.0048,3.9861,4.0035,4.0035,4.0035,4.0035,4.0034,0,3.9172,3.9214,3.9292,3.9382,3.9449,3.944,3.951,3.9566,3.9652,3.9714,3.9786,3.989,3.9975,4.0027,4.0112,4.0164,4.0164,4.0185,4.0181,4.019,4.0062,4.0035,4.0183,4.0183,4.0183,4.0183,4.0183,4.0183,3.9264,3.9374,3.9395,3.953,3.9572,3.9667,3.9708,3.9764,3.9813,3.993,4.0,4.0033,4.0091,4.0181,4.0258,4.0271,4.0302,4.0325,4.0336,4.0215,4.0199,4.0185,4.0159,4.0332,4.0332,4.0458,4.0459,4.046]},{"header":{"parameterUnit":"m.s-1","parameterCategory":1,"la1":30.2991,"la2":30.254,"lo1":-89.0895,"lo2":-89.0444,"dy":0.0017,"dx":0.0017,"nx":28,"ny":28,"refTime":"2024-08-12T09:00:00:Z","depth":0,"parameterNumber":3,"parameterNumberName":"V-component_of_WINDS"},"data":[0,0,0,0,0,0,0,0,0,0,0,0,0,0,0,0,0,0,0,0,0,0,0,0,0,0,0,0,0,0,0,0,0,0,0,0,0,0,0,0,0,0,0,0,0,0,0,0,0,0,0,0,0,0,0,0,0,0,0.487,0.4869,0,0.4798,0.4797,0.4797,0.4759,0.4759,0.4759,0.4759,0.4687,0.4685,0.4683,0,0,0,0,0,0,0,0,0,0,0,0,0,0.4976,0.4974,0.487,0.4869,0.4868,0.4798,0.4797,0.4796,0.4759,0.4759,0.4759,0.4759,0.4688,0.4686,0.4683,0,0,0,0,0,0,0,0,0,0,0,0,0,0.4919,0.4973,0.487,0.4841,0.4838,0.4799,0.4797,0.4796,0.4759,0.4759,0.4759,0.4759,0.4688,0.4686,0.4683,0.4668,0,0,0.4674,0.4673,0,0,0,0,0,0,0,0,0.4923,0.4916,0.4846,0.4843,0.4839,0.4787,0.4808,0.4753,0.4759,0.4789,0.4759,0.4759,0.4721,0.4715,0.4702,0.4664,0.4661,0.4674,0.4673,0.4671,0.4671,0,0,0,0,0,0,0,0.4927,0.4919,0.4842,0.4845,0.4841,0.4832,0.4824,0.4798,0.4756,0.4786,0.4784,0.4775,0.4719,0.4705,0.47,0.466,0.4674,0.4672,0.467,0.4669,0.4606,0.4606,0,0,0,0,0,0,0.4935,0.4922,0.4844,0.4839,0.4882,0.483,0.4821,0.4804,0.4756,0.4749,0.4776,0.4774,0.471,0.4703,0.4697,0.4676,0.4671,0.4669,0.4667,0.4606,0.4606,0.4606,0,0,0,0,0,0,0.4937,0.4928,0.4847,0.488,0.4869,0.4828,0.481,0.4803,0.4789,0.4748,0.4741,0.4769,0.4709,0.4701,0.4675,0.4673,0.4667,0.4665,0.4606,0.4606,0.4606,0.4633,0,0,0,0,0,0,0.4941,0.493,0.4923,0.488,0.4867,0.4825,0.481,0.4801,0.4784,0.4781,0.474,0.4733,0.4709,0.4679,0.4672,0.4669,0.4663,0.4606,0.4606,0.4606,0.4632,0.4634,0.4636,0,0,0,0,0,0.4945,0.4934,0.4923,0.4914,0.4858,0.4825,0.4818,0.4789,0.4784,0.4777,0.4751,0.4734,0.4674,0.4677,0.4669,0.4665,0.4606,0.4606,0.4606,0.4632,0.4634,0.4636,0,0,0,0,0,0,0.4978,0.4928,0.4915,0.489,0.4862,0.4819,0.4809,0.4793,0.4766,0.4765,0.4731,0.4722,0.4699,0.4679,0.4683,0.4647,0.4639,0.4637,0.4661,0.4663,0.4664,0.4669,0.466,0,0,0,0,0,0.4982,0.4959,0.4917,0.4899,0.4886,0.485,0.4835,0.4815,0.4785,0.4773,0.4745,0.4718,0.4692,0.4676,0.4651,0.4629,0.462,0.4622,0.4624,0.4626,0.4625,0.4612,0.4612,0.4606,0.4606,0.4606,0,0,0.4991,0.4961,0.4949,0.4905,0.4881,0.4858,0.484,0.4817,0.48,0.477,0.4743,0.4722,0.4689,0.4665,0.4653,0.4647,0.4624,0.4626,0.4627,0.4625,0.4612,0.4612,0.4613,0.4606,0.4606,0.4606,0,0,0.4996,0.4971,0.4953,0.4929,0.4893,0.487,0.4865,0.4825,0.4809,0.4782,0.4759,0.4738,0.4696,0.4673,0.4655,0.4652,0.4635,0.4644,0.4653,0.4641,0.4641,0.4642,0.464,0.464,0.4643,0.4644,0.4644,0,0.5011,0.4976,0.4946,0.4924,0.4905,0.4877,0.4858,0.4837,0.4795,0.4783,0.4778,0.4723,0.4699,0.4669,0.4668,0.4655,0.4649,0.4649,0.4644,0.4644,0.4643,0.4642,0.4641,0.4645,0.4645,0.4645,0.4644,0,0.4997,0.4973,0.4963,0.4922,0.4903,0.4883,0.485,0.4834,0.4816,0.4794,0.4766,0.4736,0.4704,0.4695,0.4678,0.4663,0.4661,0.465,0.4641,0.4646,0.4644,0.4643,0.4647,0.4646,0.4646,0.4646,0,0,0.502,0.4963,0.496,0.4941,0.49,0.488,0.486,0.4828,0.4814,0.4787,0.4768,0.4733,0.4722,0.4703,0.4683,0.4672,0.4671,0.4663,0.4661,0.4665,0.4653,0.4661,0.466,0.466,0.466,0.466,0.4655,0,0.5019,0.4979,0.4951,0.4923,0.49,0.4872,0.4854,0.4827,0.4805,0.4783,0.4759,0.4735,0.4723,0.4711,0.4699,0.4674,0.4668,0.4674,0.4643,0.4642,0.4652,0.4659,0.4668,0.4665,0.4654,0.4654,0.4654,0,0.5011,0.4984,0.4953,0.4913,0.4903,0.4887,0.4855,0.4835,0.4803,0.4788,0.4767,0.4746,0.4723,0.4716,0.4684,0.4689,0.4675,0.466,0.466,0.4655,0.4648,0.4655,0.4663,0.4663,0.4652,0.4653,0.4653,0,0.5031,0.4986,0.4962,0.4947,0.49,0.489,0.487,0.4838,0.4821,0.4794,0.4782,0.4753,0.4737,0.4715,0.4687,0.4685,0.4658,0.4649,0.4646,0.4646,0.4641,0.4642,0.4647,0.4633,0.4633,0.4633,0.4633,0,0.5032,0.5014,0.497,0.4955,0.4934,0.4903,0.4883,0.4861,0.4833,0.4814,0.4789,0.4771,0.4736,0.4714,0.4692,0.4669,0.4662,0.465,0.4644,0.4652,0.4653,0.4642,0.4641,0.4632,0.4632,0.4632,0.4633,0,0.505,0.502,0.4992,0.495,0.4939,0.4926,0.489,0.4875,0.4852,0.4827,0.482,0.4784,0.4757,0.4727,0.4691,0.4676,0.4654,0.4646,0.4665,0.4661,0.4659,0.466,0.4657,0.4655,0.4643,0.4643,0.4643,0,0.5053,0.5038,0.4995,0.498,0.4961,0.4937,0.4919,0.4887,0.487,0.4833,0.4822,0.4793,0.4768,0.4727,0.4698,0.467,0.4661,0.4662,0.4656,0.4664,0.466,0.4661,0.466,0.4663,0.4664,0.4664,0.4664,0,0.506,0.5046,0.5021,0.499,0.4969,0.4944,0.4918,0.4907,0.4871,0.4852,0.4824,0.4805,0.4767,0.4739,0.4707,0.4687,0.467,0.4666,0.4663,0.4671,0.4682,0.4676,0.4669,0.4666,0.4666,0.4666,0.4666,0.4665,0.507,0.5056,0.5023,0.4996,0.4973,0.4949,0.4932,0.4907,0.4883,0.4849,0.4833,0.4805,0.4774,0.4729,0.471,0.4688,0.4683,0.4679,0.4678,0.4678,0.468,0.4686,0.4682,0.4682,0.4682,0.4682,0.4682,0,0.5076,0.5054,0.5029,0.4993,0.4971,0.4956,0.4927,0.491,0.4885,0.4858,0.4834,0.4802,0.4774,0.4743,0.4713,0.4702,0.4693,0.4695,0.4696,0.4691,0.4687,0.4691,0.4703,0.4703,0.4703,0.4703,0.4703,0.4703,0.5076,0.5051,0.5034,0.4997,0.4975,0.4947,0.4931,0.4909,0.4887,0.4852,0.4828,0.4808,0.4779,0.4747,0.4722,0.4713,0.4704,0.4708,0.4697,0.4693,0.4692,0.469,0.4694,0.4706,0.4706,0.4704,0.4704,0.4704]}]]